Powrót do katalogu

KUIPER-00416

AktywnyŁącznośćLEO
NORAD 68931·PAYLOAD·🇺🇸 United States

Wystrzelony Apr 30, 2026 z Guiana Space Centre

Loading…

Następne Przeloty (najbliższe 24 godziny)

TLE

ŚwieżeSource: CelesTrak SupGP

Epoka: Sep 14, 2026, 22:55 UTC

1 68931C 26098N   26257.95496528  .00004475  00000+0  58592-3 0  2570
2 68931  51.9032   7.5689 0000550 112.3475 142.8502 14.79917197    15

Śledź KUIPER-00416 w czasie rzeczywistym z AllMySat

Download on the App Store